Location: G�ndlingen
(48.0142°N, 7.6396°E)
Time: 18:52:26
(UTC+00:00)

Cosmos 2112 Rocket - Pass Details

Date: 05 July 2020
Orbit: 756 x 787 km, 74.1° (Epoch: 12 August)

Event Time Altitude Azimuth Distance (km) Brightness Sun altitude
Exits shadow 22:48:21 22° 216° (SW) 1,683 5.4 -18.6°
Maximum altitude 22:51:53 68° 295° (WNW) 851 4.3 -18.7°
Drops below altitude 10° 22:57:14 10° 18° (NNE) 2,359 7.5 -18.8°
Sets 22:59:40 0° 22° (NNE) 3,291 8.3 -18.9°
